Wind_Speed
15 13 12 11 11 10 10 9 9 9 10 9 10 12 14 15 17 20 20 19 18 16 15 14 13 14 14 15 13 12 11 7 6 5 5 6 10 13 13 14 13 12 12 10 10
16 15 14 12 11 11 11 10 9 10 11 11 11 12 14 16 18 20 20 20 18 16 16 14 13 13 15 15 16 15 13 8 6 6 7 7 9 13 14 14 14 12 12 14 12
19 17 16 14 13 12 12 11 10 11 11 12 12 13 14 15 17 18 20 19 19 18 17 15 14 14 15 15 17 17 17 12 11 10 9 10 10 14 15 17 12 11 16 15 14
21 19 17 16 14 14 13 12 12 11 11 12 14 15 14 16 13 19 20 20 19 19 17 15 15 15 15 17 17 18 15 13 12 11 12 12 14 15 16 16 15 18 16 16 15
24 22 19 18 16 15 14 13 12 12 12 12 13 15 16 17 17 15 20 20 19 18 17 15 15 14 15 16 16 17 16 14 14 13 14 15 16 19 17 17 17 19 18 17 17
26 24 22 20 18 17 16 15 14 14 14 14 14 15 16 17 19 14 20 20 21 19 18 16 16 15 15 16 15 14 13 14 14 17 18 17 20 21 17 15 17 18 19 19 19
29 27 25 23 21 19 17 17 16 15 15 15 15 15 17 17 18 19 16 20 20 20 19 18 18 17 16 15 18 18 17 16 18 18 20 19 26 21 17 19 20 20 19 20 20
33 30 28 26 24 22 20 18 17 17 16 15 16 16 18 18 18 20 18 20 21 20 19 19 19 18 18 17 14 14 16 18 17 19 22 20 26 19 17 19 19 19 20 21 21
37 34 31 29 28 25 23 21 19 19 18 18 18 18 18 20 21 19 21 20 21 20 20 20 19 18 19 18 15 16 13 17 18 18 20 23 27 19 16 19 19 19 21 21 22
40 37 34 32 30 28 26 24 22 21 21 20 20 17 18 21 22 22 21 21 20 20 21 20 20 21 21 20 13 15 17 19 20 20 22 26 29 24 24 25 24 24 24 23 23
42 40 36 34 33 31 29 27 25 24 25 25 19 26 12 20 22 23 23 22 22 23 22 22 22 25 20 19 21 21 17 18 20 21 25 29 33 26 28 29 29 29 26 24 23
45 42 39 37 36 35 32 30 27 24 24 26 27 20 25 16 22 23 26 26 26 26 24 23 26 22 22 21 21 22 22 22 22 24 25 31 37 35 33 35 32 30 29 27 25
48 45 43 41 40 38 33 28 27 25 24 26 30 30 26 25 23 23 25 27 27 26 25 25 20 23 24 22 22 23 22 21 22 24 26 32 36 21 15 20 24 26 29 31 29
50 48 45 45 43 38 35 31 28 26 18 24 31 33 33 31 28 28 26 27 29 27 25 23 27 25 21 20 22 25 21 21 20 19 9 16 14 22 22 18 8 14 23 26 27
53 49 47 45 45 41 33 31 27 23 5 17 33 37 38 39 33 33 31 29 29 28 27 23 22 27 29 26 21 21 18 16 16 17 22 19 12 17 26 13 5 9 15 22 21
51 53 52 54 49 41 35 31 26 18 11 16 22 33 39 41 42 35 36 34 32 28 28 30 24 21 23 25 22 21 15 12 12 11 7 14 10 11 12 6 6 5 6 6 14
38 45 44 45 43 46 47 35 24 18 14 16 20 29 39 42 43 40 38 40 34 27 31 30 28 27 22 21 20 22 15 3 2 3 5 6 9 18 11 9 10 5 12 9 10
46 39 38 37 34 40 46 48 15 19 21 15 24 28 32 38 41 41 37 41 41 34 22 30 13 30 27 28 22 23 22 8 4 3 1 5 10 5 11 18 17 15 11 14 11
43 45 41 37 42 45 43 45 28 18 35 27 25 29 29 35 25 40 41 43 43 43 26 17 17 18 31 30 27 22 22 23 8 8 2 9 22 34 22 6 6 8 9 10 9
31 26 32 29 37 47 44 47 34 26 14 32 26 24 28 31 32 22 32 26 46 41 40 24 10 18 24 26 28 25 20 11 12 4 6 4 13 21 6 8 4 4 8 7 9
31 26 31 32 34 45 51 42 40 32 23 23 33 27 20 23 29 30 16 20 17 23 43 37 23 14 21 24 30 30 29 19 14 8 4 3 7 12 8 7 5 5 9 4 6
29 34 28 39 39 42 51 50 43 35 36 25 25 33 27 31 27 27 22 15 15 18 28 45 20 21 23 20 27 31 31 35 18 9 12 7 12 12 11 16 12 10 10 13 13
25 27 22 36 43 44 42 45 43 38 35 32 33 29 25 20 18 26 33 23 15 18 17 30 20 11 7 16 22 29 34 36 39 28 18 8 7 17 14 15 12 18 14 17 22
32 29 32 34 40 42 44 44 43 42 37 33 31 30 26 28 28 12 19 19 21 23 19 16 20 18 14 9 8 21 38 41 43 27 22 39 27 25 23 23 22 20 22 24 25
42 31 38 38 43 38 38 38 41 41 36 32 32 32 30 26 30 35 28 22 23 24 24 26 29 29 32 29 24 23 24 25 40 46 32 26 30 25 21 19 25 26 30 33 32
40 42 36 43 36 40 43 41 42 35 40 39 34 30 37 37 31 29 34 34 29 29 32 32 27 30 37 33 29 36 38 37 38 35 35 40 49 37 30 31 36 41 40 41 40
40 33 32 40 41 42 45 46 47 45 40 38 36 34 36 35 34 34 23 23 33 31 29 29 30 24 21 22 27 39 41 48 51 51 45 48 48 38 38 39 33 33 36 33 34
Wind_Direction
232 230 228 234 225 220 214 210 208 203 199 196 197 196 194 190 191 189 193 190 193 195 198 201 205 206 208 216 217 224 233 251 267 284 267 259 236 231 231 230 233 235 238 242 243
230 230 221 229 231 218 216 207 207 206 202 196 195 199 197 195 194 192 197 195 195 197 201 207 210 211 213 218 222 224 235 248 245 264 269 263 244 236 235 238 240 242 244 250 253
235 233 226 217 226 223 214 208 207 208 204 196 198 199 203 201 201 198 200 198 198 200 204 208 211 214 218 222 227 234 239 249 255 267 265 257 246 241 239 241 242 241 243 253 257
235 236 234 222 218 223 223 209 208 214 213 207 199 201 202 206 200 206 201 201 202 205 206 211 214 219 222 226 232 239 246 250 258 263 261 258 251 251 247 248 239 245 251 255 259
231 235 232 233 221 217 220 220 212 212 217 212 211 205 203 205 204 205 203 203 205 208 210 211 218 225 227 234 238 243 250 254 259 263 263 262 261 256 255 250 246 249 253 255 258
229 233 233 230 231 222 215 216 216 215 214 215 214 212 206 206 208 204 203 203 205 206 211 213 218 223 231 237 239 248 252 254 257 255 259 263 261 260 263 262 256 255 253 254 256
227 228 232 229 227 227 220 215 216 215 216 216 214 212 212 204 209 209 205 204 205 209 211 213 217 221 234 240 244 247 254 256 253 254 257 261 259 266 272 263 262 258 257 255 257
226 226 229 231 228 225 223 218 216 217 217 216 220 214 216 212 208 208 207 206 208 211 214 218 222 224 230 239 244 242 248 250 259 258 257 255 262 266 266 267 264 263 260 258 260
227 224 225 228 228 224 223 221 218 218 217 219 217 218 219 217 211 210 209 209 208 211 218 222 224 228 233 239 246 248 250 258 264 263 263 261 269 275 273 268 265 264 259 258 258
228 226 224 225 227 226 223 221 220 220 217 220 220 220 223 218 214 211 211 212 210 209 213 218 225 232 236 236 235 253 262 271 271 278 274 272 276 280 276 271 269 263 260 261 262
227 228 226 225 225 226 224 222 219 224 221 220 225 222 228 216 214 214 212 214 215 221 223 224 228 234 246 249 252 257 264 271 276 279 281 283 283 282 279 272 270 270 270 267 264
228 226 227 226 225 224 223 224 225 230 229 224 224 223 226 221 216 215 217 215 218 221 223 227 234 238 242 244 247 252 260 264 275 280 285 287 287 290 283 278 274 271 266 263 258
226 226 226 226 226 225 225 224 226 227 231 229 224 224 220 221 219 218 218 220 223 226 228 232 237 241 238 243 247 252 255 264 271 282 285 294 298 299 301 298 275 266 263 258 255
219 223 224 225 226 223 222 220 222 226 234 240 229 224 220 220 222 222 217 219 221 222 224 236 236 237 240 245 246 252 253 259 267 281 282 295 293 294 314 310 283 275 254 250 247
213 220 223 227 230 225 218 217 217 215 254 234 222 219 217 217 224 221 220 219 223 224 216 225 234 237 241 246 241 246 251 256 264 272 287 285 275 298 307 327 284 278 269 250 242
228 220 219 222 222 217 211 211 202 196 236 213 202 208 210 214 219 223 217 215 220 220 224 230 235 232 232 236 236 242 246 254 266 269 273 263 236 284 313 277 310 283 262 258 245
214 220 221 219 219 213 202 193 183 215 219 213 199 201 207 211 213 215 216 214 209 204 215 223 229 231 225 226 225 227 225 241 236 180 240 257 262 267 289 291 281 257 256 255 266
219 215 221 221 223 224 213 180 197 221 204 189 189 196 204 208 213 215 216 216 215 214 217 214 219 227 227 224 232 219 214 208 228 214 327 258 244 265 285 296 283 275 264 267 259
205 213 219 224 223 220 211 179 210 203 207 203 181 194 202 205 207 214 218 223 222 219 210 218 225 229 228 226 222 216 215 231 251 270 284 245 262 278 283 286 286 235 229 238 246
195 201 205 215 226 218 212 219 215 216 197 204 212 205 211 207 206 203 213 234 231 224 222 227 224 228 222 221 220 220 224 210 209 220 235 235 250 249 252 277 249 299 221 234 243
208 226 216 218 218 216 207 216 223 221 216 211 219 222 214 214 213 208 209 219 212 222 220 222 231 231 219 218 221 216 213 216 220 210 247 243 237 249 235 246 239 316 217 247 253
205 211 216 211 199 211 211 220 225 219 219 200 212 219 222 219 218 214 219 216 215 215 209 219 224 229 230 232 229 226 229 230 226 224 219 247 246 236 277 285 283 294 266 243 283
242 221 223 204 203 211 219 222 226 226 226 225 224 210 222 215 215 224 234 226 203 209 211 214 219 218 233 246 232 230 232 235 237 245 233 210 240 232 235 299 261 305 289 267 263
212 206 205 206 209 220 222 221 223 227 231 231 224 224 218 217 220 223 217 215 214 226 217 212 218 216 229 249 238 231 244 242 238 232 238 232 238 236 253 278 288 287 285 275 272
206 212 223 210 216 226 231 225 227 223 224 224 225 225 221 217 223 219 217 219 221 224 218 222 228 236 247 253 255 256 252 251 245 249 235 261 258 259 268 261 280 281 283 284 280
207 216 217 224 224 226 230 234 227 232 234 232 227 231 226 235 241 243 234 224 225 224 229 234 242 238 241 245 252 259 257 256 259 260 261 260 258 265 270 276 277 286 287 279 280
212 221 219 223 226 218 228 231 236 240 240 240 246 248 249 246 242 251 235 222 233 231 230 220 222 230 248 251 257 267 261 259 261 262 263 263 274 282 276 281 285 291 286 279 277
Height
3107 3109 3109 3111 3111 3111 3112 3113 3114 3115 3117 3118 3120 3122 3124 3126 3129 3131 3134 3136 3139 3140 3142 3144 3145 3146 3148 3149 3150 3151 3152 3150 3150 3150 3149 3149 3149 3149 3150 3150 3151 3151 3151 3152 3151
3104 3106 3106 3108 3109 3109 3110 3111 3112 3114 3116 3117 3118 3121 3123 3124 3127 3129 3133 3134 3136 3139 3141 3142 3143 3145 3146 3147 3148 3149 3149 3149 3149 3148 3148 3147 3147 3147 3148 3148 3148 3149 3149 3149 3149
3101 3103 3104 3104 3106 3107 3108 3109 3110 3112 3114 3115 3116 3119 3121 3123 3126 3127 3130 3132 3134 3137 3138 3140 3141 3143 3144 3145 3146 3146 3146 3147 3147 3146 3145 3145 3144 3144 3145 3144 3146 3147 3145 3145 3146
3097 3099 3101 3102 3103 3105 3106 3107 3108 3111 3112 3113 3114 3116 3118 3122 3126 3125 3127 3130 3132 3135 3137 3138 3139 3140 3141 3142 3143 3144 3144 3144 3144 3144 3143 3143 3142 3141 3141 3142 3143 3142 3142 3142 3142
3092 3095 3097 3099 3100 3101 3104 3105 3106 3108 3110 3111 3113 3115 3117 3120 3122 3123 3125 3128 3130 3133 3135 3136 3137 3138 3139 3139 3140 3140 3141 3142 3142 3141 3140 3139 3138 3138 3138 3139 3139 3139 3138 3138 3139
3087 3090 3094 3096 3098 3099 3100 3102 3104 3106 3108 3110 3111 3113 3115 3117 3119 3121 3122 3125 3128 3130 3132 3133 3135 3136 3136 3137 3137 3137 3138 3138 3138 3136 3135 3136 3134 3134 3135 3135 3134 3134 3134 3134 3134
3081 3084 3089 3091 3094 3096 3097 3099 3101 3103 3106 3107 3109 3110 3112 3115 3116 3118 3120 3123 3125 3127 3129 3130 3132 3133 3134 3134 3133 3134 3135 3135 3133 3132 3131 3132 3128 3129 3132 3130 3130 3129 3130 3130 3130
3075 3078 3083 3087 3089 3091 3093 3095 3098 3100 3102 3104 3106 3108 3109 3110 3112 3115 3118 3120 3122 3125 3126 3128 3129 3130 3130 3131 3131 3132 3132 3130 3129 3129 3128 3128 3123 3127 3128 3126 3126 3126 3126 3125 3126
3068 3071 3076 3081 3084 3087 3089 3091 3094 3096 3098 3101 3104 3105 3106 3107 3109 3112 3114 3117 3119 3121 3123 3125 3126 3127 3129 3129 3130 3129 3128 3127 3127 3124 3124 3124 3120 3123 3124 3122 3122 3121 3121 3121 3121
3061 3065 3069 3074 3079 3082 3084 3086 3089 3092 3094 3097 3099 3104 3102 3103 3106 3108 3111 3114 3116 3118 3120 3122 3123 3124 3124 3126 3125 3126 3126 3125 3123 3122 3120 3118 3116 3119 3119 3117 3117 3115 3115 3115 3115
3053 3058 3062 3068 3072 3076 3079 3081 3086 3088 3089 3092 3093 3094 3097 3099 3102 3104 3106 3110 3112 3115 3116 3118 3119 3118 3121 3122 3122 3122 3122 3122 3121 3119 3117 3114 3110 3115 3113 3110 3109 3109 3109 3109 3110
3044 3050 3055 3060 3064 3068 3071 3075 3079 3083 3085 3086 3087 3090 3093 3095 3098 3099 3103 3106 3107 3109 3112 3115 3113 3116 3117 3118 3119 3119 3119 3118 3117 3115 3113 3108 3103 3105 3106 3103 3102 3102 3102 3102 3102
3035 3041 3047 3052 3056 3060 3067 3072 3075 3078 3080 3081 3081 3084 3088 3091 3092 3095 3098 3100 3103 3105 3107 3109 3111 3112 3112 3113 3114 3115 3115 3115 3115 3112 3109 3104 3095 3096 3096 3095 3092 3092 3093 3094 3094
3024 3031 3037 3041 3049 3054 3060 3064 3069 3074 3075 3073 3073 3074 3080 3083 3086 3089 3091 3096 3097 3099 3103 3104 3105 3107 3108 3109 3112 3111 3111 3112 3111 3111 3108 3106 3092 3091 3090 3088 3086 3085 3085 3086 3087
3012 3020 3026 3036 3040 3046 3057 3059 3064 3071 3070 3062 3058 3063 3068 3075 3079 3081 3085 3088 3090 3094 3099 3097 3098 3101 3102 3104 3107 3106 3107 3109 3108 3108 3105 3101 3101 3083 3085 3082 3082 3081 3081 3081 3081
3002 3010 3016 3020 3030 3039 3045 3053 3060 3069 3050 3045 3045 3051 3058 3062 3069 3073 3078 3082 3085 3088 3091 3092 3093 3096 3097 3099 3102 3103 3105 3105 3106 3106 3105 3096 3099 3077 3080 3081 3080 3080 3079 3078 3078
2994 3001 3008 3014 3019 3023 3030 3043 3055 3045 3038 3038 3039 3044 3049 3053 3059 3063 3068 3072 3076 3080 3083 3086 3088 3089 3093 3094 3097 3099 3101 3104 3104 3104 3097 3093 3093 3076 3076 3077 3078 3077 3078 3077 3077
2987 2994 2997 3006 3010 3013 3019 3028 3035 3023 3029 3029 3033 3039 3044 3048 3052 3056 3062 3064 3068 3071 3075 3079 3084 3084 3086 3088 3091 3093 3096 3097 3095 3096 3093 3092 3082 3074 3074 3074 3074 3073 3074 3074 3073
2973 2980 2989 2996 3001 3004 3010 3015 3008 3012 3017 3025 3030 3034 3039 3041 3045 3051 3055 3057 3060 3065 3073 3074 3077 3076 3079 3082 3087 3089 3091 3091 3092 3093 3094 3085 3078 3072 3070 3070 3068 3068 3069 3070 3071
2964 2973 2978 2984 2990 2994 2999 3000 3005 3011 3013 3021 3027 3030 3031 3034 3039 3043 3049 3049 3053 3059 3065 3068 3070 3072 3074 3077 3080 3082 3085 3089 3090 3089 3083 3077 3075 3067 3067 3067 3068 3067 3067 3068 3069
2958 2964 2968 2973 2981 2985 2986 2993 2999 3007 3012 3017 3022 3024 3027 3029 3033 3035 3038 3043 3046 3049 3057 3063 3065 3068 3069 3068 3071 3073 3075 3079 3080 3078 3074 3071 3067 3063 3065 3065 3066 3066 3066 3066 3067
2952 2959 2962 2966 2973 2976 2980 2985 2992 2999 3003 3007 3014 3020 3023 3027 3028 3033 3033 3038 3040 3045 3047 3054 3058 3060 3063 3063 3064 3066 3069 3073 3072 3071 3068 3068 3061 3061 3061 3062 3062 3064 3064 3063 3062
2944 2953 2956 2960 2963 2968 2976 2981 2987 2991 2995 3000 3006 3013 3019 3024 3027 3027 3030 3034 3037 3040 3043 3047 3050 3056 3057 3061 3059 3058 3060 3062 3065 3064 3057 3064 3057 3056 3059 3058 3059 3060 3060 3059 3058
2944 2948 2950 2955 2959 2964 2968 2974 2979 2984 2988 2994 2997 3004 3010 3018 3021 3023 3024 3027 3030 3037 3040 3042 3044 3045 3047 3047 3048 3048 3051 3052 3055 3052 3049 3039 3048 3055 3054 3055 3054 3055 3054 3052 3051
2937 2937 2943 2945 2951 2956 2965 2968 2971 2976 2981 2987 2991 2997 3003 3008 3012 3013 3018 3023 3027 3031 3035 3037 3037 3040 3043 3045 3043 3042 3043 3042 3040 3041 3042 3041 3041 3045 3049 3048 3047 3047 3047 3043 3044
2929 2934 2936 2940 2944 2951 2956 2959 2965 2970 2976 2980 2983 2991 2996 2998 3004 3005 3008 3012 3016 3022 3026 3029 3030 3031 3034 3038 3037 3033 3033 3033 3030 3031 3031 3035 3028 3041 3041 3039 3038 3038 3036 3033 3033
2924 2926 2930 2931 2938 2945 2946 2953 2958 2965 2971 2976 2979 2983 2988 2996 2998 2999 3001 3007 3009 3013 3018 3025 3026 3027 3026 3031 3033 3023 3016 3022 3022 3019 3026 3021 3022 3031 3028 3026 3027 3027 3025 3022 3019